UPS241 KSDF-KBFI

Flight info

Callsign UPS241
Flight time N/A
Altitude 36000
Route GTGON1 TERGE FAM BUM/N0478F360 OBH RAP KD90U BIL HLN GEG TEMPL GLASR3
Aircraft B763/H-SDE3FGHIM3RWXY/LB1

Departure

Time N/A
Airport Louisville Muhammad Ali International Airport (KSDF)

Arrival

Time 2026-05-01 14:57
Airport King County International Airport - Boeing Field (KBFI)
Time Latitude Longitude Altitude Speed Heading
2026-05-01 10:29 37.91897 -87.86420 34030 ft 335 kts 265°
2026-05-01 10:30 37.90882 -87.97240 34027 ft 336 kts 264°
2026-05-01 10:31 37.89855 -88.08093 34019 ft 335 kts 264°
2026-05-01 10:32 37.89075 -88.16247 34025 ft 336 kts 265°
2026-05-01 10:33 37.88028 -88.27124 34026 ft 334 kts 265°
2026-05-01 10:34 37.87236 -88.35287 34031 ft 337 kts 265°
2026-05-01 10:34 37.86705 -88.40723 34032 ft 335 kts 265°
2026-05-01 10:35 37.85915 -88.48737 34036 ft 337 kts 265°
2026-05-01 10:35 37.85392 -88.54033 34041 ft 336 kts 265°
2026-05-01 10:36 37.84609 -88.61898 34037 ft 333 kts 265°
2026-05-01 10:37 37.84087 -88.67124 34067 ft 336 kts 264°
2026-05-01 10:37 37.83300 -88.74925 34067 ft 334 kts 264°
2026-05-01 10:38 37.82771 -88.80167 34066 ft 334 kts 265°
2026-05-01 10:38 37.82237 -88.85405 34057 ft 337 kts 265°
2026-05-01 10:39 37.81690 -88.90781 34055 ft 336 kts 264°
2026-05-01 10:39 37.81144 -88.96092 34060 ft 336 kts 265°
2026-05-01 10:40 37.80592 -89.01440 34060 ft 336 kts 265°
2026-05-01 10:40 37.80035 -89.06830 34057 ft 337 kts 265°
2026-05-01 10:41 37.79475 -89.12199 34060 ft 337 kts 265°
2026-05-01 10:42 37.78635 -89.20255 34058 ft 335 kts 264°
2026-05-01 10:42 37.78066 -89.25645 34058 ft 337 kts 265°
2026-05-01 10:43 37.77492 -89.31085 34062 ft 336 kts 264°
2026-05-01 10:43 37.76907 -89.36597 34065 ft 338 kts 264°
2026-05-01 10:44 37.76325 -89.42055 34064 ft 339 kts 264°
2026-05-01 10:44 37.75742 -89.47500 34060 ft 337 kts 264°
2026-05-01 10:45 37.75154 -89.52979 34058 ft 338 kts 263°
2026-05-01 10:45 37.74560 -89.58456 34054 ft 337 kts 264°
2026-05-01 10:46 37.73970 -89.63898 34054 ft 338 kts 264°
2026-05-01 10:46 37.73369 -89.69413 34084 ft 340 kts 264°
2026-05-01 10:47 37.72773 -89.74863 34085 ft 337 kts 263°
2026-05-01 10:47 37.72177 -89.80267 34087 ft 338 kts 264°
2026-05-01 10:48 37.71583 -89.85648 34079 ft 339 kts 264°
2026-05-01 10:48 37.70978 -89.91101 34081 ft 340 kts 264°
2026-05-01 10:49 37.70378 -89.96496 34076 ft 340 kts 264°
2026-05-01 10:49 37.69770 -90.01938 34071 ft 339 kts 263°
2026-05-01 10:50 37.69160 -90.07358 34074 ft 339 kts 263°
2026-05-01 10:50 37.68552 -90.12747 34075 ft 339 kts 263°
2026-05-01 10:51 37.67939 -90.18158 34076 ft 341 kts 263°
2026-05-01 10:51 37.67532 -90.23585 34078 ft 339 kts 271°
2026-05-01 10:52 37.68291 -90.29083 34074 ft 342 kts 277°
2026-05-01 10:52 37.69139 -90.34518 34084 ft 343 kts 276°
2026-05-01 10:53 37.70035 -90.40221 34225 ft 346 kts 277°
2026-05-01 10:53 37.70489 -90.43095 34375 ft 346 kts 278°
2026-05-01 10:53 37.70948 -90.46008 34648 ft 344 kts 277°
2026-05-01 10:53 37.71398 -90.48865 34769 ft 345 kts 277°
2026-05-01 10:54 37.71844 -90.51704 34917 ft 346 kts 277°
2026-05-01 10:54 37.72294 -90.54567 35103 ft 345 kts 278°
2026-05-01 10:54 37.72740 -90.57413 35296 ft 344 kts 277°
2026-05-01 10:55 37.73636 -90.63145 35539 ft 345 kts 278°
2026-05-01 10:55 37.74073 -90.65937 35644 ft 346 kts 277°
2026-05-01 10:55 37.74506 -90.68716 35808 ft 346 kts 277°
2026-05-01 10:55 37.74929 -90.71435 35950 ft 346 kts 277°
2026-05-01 10:56 37.75362 -90.74225 36067 ft 345 kts 277°
2026-05-01 10:56 37.76204 -90.79645 36090 ft 342 kts 277°
2026-05-01 10:57 37.77039 -90.85044 36092 ft 343 kts 277°
2026-05-01 10:57 37.77875 -90.90470 36094 ft 344 kts 277°
2026-05-01 10:58 37.78705 -90.95874 36089 ft 343 kts 278°
2026-05-01 10:58 37.79542 -91.01337 36090 ft 344 kts 277°
2026-05-01 10:59 37.80377 -91.06806 36088 ft 344 kts 277°
2026-05-01 10:59 37.81205 -91.12260 36086 ft 344 kts 277°
2026-05-01 11:00 37.82040 -91.17762 36086 ft 345 kts 277°
2026-05-01 11:00 37.82867 -91.23231 36089 ft 346 kts 276°
2026-05-01 11:01 37.83695 -91.28741 36093 ft 345 kts 277°
2026-05-01 11:01 37.84522 -91.34254 36098 ft 345 kts 276°
2026-05-01 11:02 37.85379 -91.39979 36104 ft 346 kts 277°
2026-05-01 11:02 37.86238 -91.45742 36099 ft 345 kts 278°
2026-05-01 11:03 37.87094 -91.51495 36100 ft 346 kts 277°
2026-05-01 11:03 37.87950 -91.57279 36095 ft 346 kts 277°
2026-05-01 11:04 37.88799 -91.63032 36091 ft 345 kts 277°
2026-05-01 11:04 37.89634 -91.68711 36123 ft 345 kts 277°
2026-05-01 11:05 37.90458 -91.74329 36112 ft 346 kts 276°
2026-05-01 11:05 37.91282 -91.79976 36110 ft 347 kts 277°
2026-05-01 11:06 37.92107 -91.85644 36108 ft 347 kts 276°
2026-05-01 11:06 37.92944 -91.91432 36113 ft 348 kts 277°
2026-05-01 11:07 37.94201 -92.00133 36109 ft 348 kts 277°
2026-05-01 11:07 37.95043 -92.06001 36119 ft 349 kts 277°
2026-05-01 11:08 37.95884 -92.11874 36124 ft 347 kts 276°
2026-05-01 11:09 37.97127 -92.20599 36131 ft 348 kts 276°
2026-05-01 11:09 37.97958 -92.26459 36126 ft 349 kts 276°
2026-05-01 11:10 37.99187 -92.35168 36091 ft 346 kts 276°
2026-05-01 11:10 37.99994 -92.40912 36122 ft 348 kts 277°
2026-05-01 11:11 38.00798 -92.46663 36124 ft 349 kts 276°
2026-05-01 11:11 38.01605 -92.52445 36126 ft 351 kts 276°
2026-05-01 11:12 38.02417 -92.58288 36128 ft 351 kts 276°
2026-05-01 11:12 38.03232 -92.64181 36131 ft 352 kts 276°
2026-05-01 11:13 38.04027 -92.69943 36151 ft 351 kts 276°
2026-05-01 11:13 38.04824 -92.75750 36141 ft 352 kts 276°
2026-05-01 11:14 38.05632 -92.81648 36152 ft 352 kts 275°
2026-05-01 11:14 38.06439 -92.87572 36137 ft 353 kts 276°
2026-05-01 11:15 38.07245 -92.93502 36146 ft 353 kts 276°
2026-05-01 11:15 38.08022 -92.99255 36141 ft 354 kts 276°
2026-05-01 11:16 38.08791 -93.04958 36139 ft 355 kts 276°
2026-05-01 11:16 38.09563 -93.10716 36132 ft 355 kts 276°
2026-05-01 11:17 38.10363 -93.16695 36125 ft 355 kts 276°
2026-05-01 11:17 38.11145 -93.22572 36121 ft 356 kts 275°
2026-05-01 11:18 38.11950 -93.28643 36123 ft 357 kts 276°
2026-05-01 11:18 38.12723 -93.34496 36125 ft 357 kts 276°
2026-05-01 11:19 38.13502 -93.40406 36121 ft 358 kts 275°
2026-05-01 11:19 38.14280 -93.46344 36132 ft 359 kts 276°
2026-05-01 11:20 38.15055 -93.52286 36138 ft 360 kts 276°
2026-05-01 11:20 38.15836 -93.58294 36119 ft 360 kts 276°
2026-05-01 11:21 38.16612 -93.64290 36121 ft 361 kts 276°
2026-05-01 11:21 38.17379 -93.70258 36139 ft 362 kts 275°
2026-05-01 11:22 38.18149 -93.76250 36144 ft 363 kts 276°
2026-05-01 11:22 38.18914 -93.82226 36158 ft 363 kts 275°
2026-05-01 11:23 38.19665 -93.88136 36149 ft 364 kts 275°
2026-05-01 11:23 38.20422 -93.94089 36136 ft 363 kts 275°
2026-05-01 11:24 38.21167 -94.00004 36141 ft 365 kts 275°
2026-05-01 11:25 38.22287 -94.08921 36136 ft 366 kts 275°
2026-05-01 11:25 38.23394 -94.17780 36132 ft 366 kts 275°
2026-05-01 11:26 38.24499 -94.26702 36132 ft 367 kts 276°
2026-05-01 11:27 38.25235 -94.32658 36134 ft 368 kts 276°
2026-05-01 11:27 38.25962 -94.38584 36128 ft 368 kts 276°
2026-05-01 11:28 38.26722 -94.44500 36122 ft 370 kts 279°
2026-05-01 11:28 38.28628 -94.50073 36128 ft 386 kts 297°
2026-05-01 11:29 38.32135 -94.54790 36134 ft 405 kts 309°
2026-05-01 11:29 38.34110 -94.57017 36131 ft 404 kts 308°
2026-05-01 11:30 38.39942 -94.63747 36113 ft 401 kts 307°
2026-05-01 11:30 38.43817 -94.68272 36142 ft 401 kts 307°
2026-05-01 11:31 38.47656 -94.72776 36136 ft 401 kts 307°
2026-05-01 11:31 38.51501 -94.77299 36146 ft 402 kts 307°
2026-05-01 11:32 38.55339 -94.81821 36140 ft 404 kts 307°
2026-05-01 11:32 38.59194 -94.86375 36148 ft 403 kts 307°
2026-05-01 11:33 38.63056 -94.90942 36146 ft 402 kts 307°
2026-05-01 11:33 38.66909 -94.95509 36155 ft 403 kts 307°
2026-05-01 11:34 38.70763 -95.00079 36157 ft 403 kts 307°
2026-05-01 11:34 38.74611 -95.04653 36149 ft 402 kts 307°
2026-05-01 11:35 38.78480 -95.09259 36155 ft 404 kts 307°
2026-05-01 11:35 38.82354 -95.13877 36148 ft 402 kts 307°
2026-05-01 11:36 38.86187 -95.18454 36154 ft 403 kts 307°
2026-05-01 11:36 38.90031 -95.23051 36148 ft 402 kts 307°
2026-05-01 11:37 38.93864 -95.27640 36140 ft 402 kts 307°
2026-05-01 11:37 38.97729 -95.32280 36137 ft 404 kts 307°
2026-05-01 11:38 39.01577 -95.36901 36121 ft 402 kts 307°
2026-05-01 11:38 39.05392 -95.41492 36134 ft 403 kts 307°
2026-05-01 11:39 39.09197 -95.46079 36100 ft 402 kts 308°
2026-05-01 11:39 39.13032 -95.50706 36129 ft 401 kts 307°
2026-05-01 11:40 39.16830 -95.55301 36110 ft 402 kts 308°
2026-05-01 11:40 39.20705 -95.59990 36142 ft 402 kts 308°
2026-05-01 11:41 39.24577 -95.64686 36118 ft 403 kts 308°
2026-05-01 11:41 39.28467 -95.69411 36138 ft 403 kts 307°
2026-05-01 11:42 39.32357 -95.74144 36360 ft 403 kts 307°
2026-05-01 11:42 39.34302 -95.76515 35975 ft 404 kts 308°
2026-05-01 11:42 39.36241 -95.78871 36178 ft 400 kts 307°
2026-05-01 11:43 39.40112 -95.83602 36235 ft 405 kts 307°
2026-05-01 11:43 39.42052 -95.85974 36121 ft 404 kts 308°
2026-05-01 11:43 39.43993 -95.88344 36157 ft 401 kts 307°
2026-05-01 11:44 39.49835 -95.95504 36135 ft 404 kts 307°
2026-05-01 11:44 39.53783 -96.00351 36136 ft 405 kts 307°
2026-05-01 11:45 39.57719 -96.05187 36133 ft 403 kts 308°
2026-05-01 11:45 39.61676 -96.10063 36136 ft 405 kts 308°
2026-05-01 11:46 39.65621 -96.14932 36141 ft 406 kts 308°
2026-05-01 11:46 39.69575 -96.19813 36137 ft 402 kts 308°
2026-05-01 11:47 39.73479 -96.24648 36145 ft 403 kts 308°
2026-05-01 11:47 39.77428 -96.29542 36148 ft 405 kts 308°
2026-05-01 11:48 39.81353 -96.34417 36144 ft 405 kts 308°
2026-05-01 11:48 39.85281 -96.39304 36146 ft 405 kts 308°
2026-05-01 11:49 39.89234 -96.44228 36139 ft 406 kts 309°
2026-05-01 11:49 39.93199 -96.49178 36133 ft 408 kts 309°
2026-05-01 11:50 39.97128 -96.54089 36129 ft 405 kts 309°
2026-05-01 11:50 40.01042 -96.58990 36131 ft 406 kts 309°
2026-05-01 11:51 40.05008 -96.63966 36143 ft 408 kts 309°
2026-05-01 11:51 40.08902 -96.68858 36153 ft 408 kts 309°
2026-05-01 11:52 40.12814 -96.73782 36151 ft 407 kts 309°
2026-05-01 11:52 40.16723 -96.78711 36147 ft 410 kts 309°
2026-05-01 11:53 40.20633 -96.83649 36149 ft 411 kts 309°
2026-05-01 11:53 40.24588 -96.88650 36144 ft 409 kts 309°
2026-05-01 11:54 40.28532 -96.93649 36142 ft 411 kts 309°
2026-05-01 11:54 40.32496 -96.98679 36133 ft 412 kts 310°
2026-05-01 11:55 40.36416 -97.03664 36132 ft 411 kts 309°
2026-05-01 11:55 40.40368 -97.08697 36133 ft 412 kts 309°
2026-05-01 11:56 40.44319 -97.13740 36131 ft 413 kts 310°
2026-05-01 11:56 40.48257 -97.18773 36132 ft 414 kts 310°
2026-05-01 11:57 40.51542 -97.22977 36124 ft 415 kts 310°
2026-05-01 11:57 40.56164 -97.28905 36126 ft 414 kts 310°
2026-05-01 11:58 40.60104 -97.33968 36129 ft 415 kts 310°
2026-05-01 11:59 40.66018 -97.41581 36123 ft 415 kts 310°
2026-05-01 11:59 40.69934 -97.46636 36119 ft 415 kts 311°
2026-05-01 12:00 40.75861 -97.54299 36130 ft 417 kts 311°
2026-05-01 12:01 40.81741 -97.61924 36126 ft 416 kts 311°
2026-05-01 12:01 40.85655 -97.67011 36135 ft 419 kts 311°
2026-05-01 12:02 40.89542 -97.72070 36130 ft 419 kts 311°
2026-05-01 12:02 40.93393 -97.77091 36130 ft 418 kts 311°
2026-05-01 12:03 40.97302 -97.82198 36138 ft 418 kts 311°
2026-05-01 12:03 41.01174 -97.87264 36135 ft 418 kts 311°
2026-05-01 12:04 41.05081 -97.92387 36147 ft 419 kts 311°
2026-05-01 12:04 41.08995 -97.97525 36143 ft 419 kts 311°
2026-05-01 12:05 41.12889 -98.02648 36148 ft 419 kts 311°
2026-05-01 12:05 41.18718 -98.10335 36149 ft 420 kts 311°
2026-05-01 12:06 41.22583 -98.15442 36146 ft 420 kts 311°
2026-05-01 12:06 41.26465 -98.20580 36143 ft 420 kts 311°
2026-05-01 12:07 41.30329 -98.25704 36139 ft 420 kts 311°
2026-05-01 12:07 41.34227 -98.30884 36122 ft 422 kts 311°
2026-05-01 12:08 41.38033 -98.36173 36122 ft 420 kts 307°
2026-05-01 12:08 41.41437 -98.41795 36127 ft 419 kts 307°
2026-05-01 12:09 41.44852 -98.47455 36121 ft 419 kts 307°
2026-05-01 12:09 41.48264 -98.53133 36129 ft 420 kts 307°
2026-05-01 12:10 41.53397 -98.61704 36127 ft 419 kts 307°
2026-05-01 12:11 41.58510 -98.70274 36159 ft 422 kts 306°
2026-05-01 12:11 41.61887 -98.75949 36154 ft 420 kts 306°
2026-05-01 12:12 41.65263 -98.81630 36145 ft 418 kts 306°
2026-05-01 12:12 41.68658 -98.87357 36134 ft 420 kts 307°
2026-05-01 12:13 41.72053 -98.93093 36144 ft 419 kts 307°
2026-05-01 12:13 41.75401 -98.98762 36143 ft 419 kts 307°
2026-05-01 12:14 41.78779 -99.04491 36139 ft 420 kts 307°
2026-05-01 12:14 41.82129 -99.10184 36144 ft 421 kts 307°
2026-05-01 12:15 41.85513 -99.15944 36141 ft 420 kts 307°
2026-05-01 12:15 41.88900 -99.21722 36134 ft 420 kts 307°
2026-05-01 12:16 41.92283 -99.27504 36138 ft 421 kts 307°
2026-05-01 12:16 41.95654 -99.33276 36136 ft 423 kts 307°
2026-05-01 12:17 41.99049 -99.39101 36139 ft 422 kts 307°
2026-05-01 12:17 42.02420 -99.44894 36126 ft 422 kts 307°
2026-05-01 12:18 42.05812 -99.50738 36136 ft 422 kts 307°
2026-05-01 12:18 42.09174 -99.56538 36137 ft 422 kts 307°
2026-05-01 12:19 42.12532 -99.62344 36137 ft 422 kts 307°
2026-05-01 12:19 42.15874 -99.68133 36149 ft 424 kts 307°
2026-05-01 12:20 42.19247 -99.73987 36145 ft 423 kts 307°
2026-05-01 12:20 42.22574 -99.79771 36142 ft 423 kts 307°
2026-05-01 12:21 42.25928 -99.85618 36154 ft 424 kts 307°
2026-05-01 12:21 42.29266 -99.91444 36143 ft 424 kts 307°
2026-05-01 12:22 42.32046 -99.96306 36158 ft 423 kts 307°
2026-05-01 12:22 42.35957 -100.03159 36161 ft 425 kts 307°
2026-05-01 12:23 42.39323 -100.09070 36160 ft 425 kts 307°
2026-05-01 12:23 42.42658 -100.14938 36151 ft 425 kts 308°
2026-05-01 12:24 42.45445 -100.19850 36150 ft 425 kts 307°
2026-05-01 12:24 42.48799 -100.25773 36159 ft 426 kts 308°
2026-05-01 12:25 42.53792 -100.34612 36124 ft 424 kts 308°
2026-05-01 12:26 42.57674 -100.41502 36136 ft 426 kts 308°
2026-05-01 12:26 42.62646 -100.50350 36132 ft 426 kts 308°
2026-05-01 12:27 42.67661 -100.59300 36132 ft 426 kts 308°
2026-05-01 12:28 42.72094 -100.67236 36138 ft 426 kts 308°
2026-05-01 12:29 42.77618 -100.77154 36138 ft 428 kts 308°
2026-05-01 12:29 42.82581 -100.86091 36133 ft 427 kts 308°
2026-05-01 12:30 42.86968 -100.94014 36138 ft 426 kts 308°
2026-05-01 12:31 42.90289 -101.00027 36136 ft 427 kts 308°
2026-05-01 12:31 42.94149 -101.07031 36115 ft 428 kts 308°
2026-05-01 12:32 42.96895 -101.12023 36162 ft 429 kts 308°
2026-05-01 12:32 43.02386 -101.22031 36114 ft 426 kts 309°
2026-05-01 12:33 43.05664 -101.28022 36105 ft 427 kts 309°
2026-05-01 12:33 43.08949 -101.34036 36112 ft 428 kts 308°
2026-05-01 12:34 43.11701 -101.39088 36122 ft 428 kts 309°
2026-05-01 12:34 43.14959 -101.45076 36122 ft 428 kts 309°
2026-05-01 12:35 43.18761 -101.52079 36124 ft 427 kts 309°
2026-05-01 12:35 43.22011 -101.58079 36143 ft 427 kts 309°
2026-05-01 12:36 43.24712 -101.63075 36121 ft 428 kts 309°
2026-05-01 12:36 43.28499 -101.70094 36144 ft 429 kts 309°
2026-05-01 12:37 43.31760 -101.76152 36143 ft 429 kts 309°
2026-05-01 12:37 43.34994 -101.82169 36116 ft 428 kts 309°
2026-05-01 12:38 43.38247 -101.88236 36158 ft 429 kts 309°
2026-05-01 12:38 43.41470 -101.94263 36128 ft 428 kts 309°
2026-05-01 12:39 43.44710 -102.00329 36121 ft 429 kts 309°
2026-05-01 12:39 43.47939 -102.06389 36132 ft 429 kts 310°
2026-05-01 12:40 43.51175 -102.12474 36140 ft 429 kts 310°
2026-05-01 12:40 43.53841 -102.17499 36136 ft 429 kts 310°
2026-05-01 12:41 43.57603 -102.24601 36147 ft 430 kts 310°
2026-05-01 12:41 43.60842 -102.30729 36133 ft 430 kts 310°
2026-05-01 12:42 43.63512 -102.35793 36139 ft 432 kts 310°
2026-05-01 12:42 43.66772 -102.41984 36152 ft 432 kts 310°
2026-05-01 12:43 43.70536 -102.49149 36141 ft 432 kts 310°
2026-05-01 12:43 43.73795 -102.55368 36142 ft 432 kts 310°
2026-05-01 12:44 43.76510 -102.60560 36138 ft 434 kts 311°
2026-05-01 12:45 43.83018 -102.73040 36149 ft 436 kts 310°
2026-05-01 12:45 43.86796 -102.80310 36138 ft 435 kts 310°
2026-05-01 12:46 43.89505 -102.85533 36125 ft 436 kts 310°
2026-05-01 12:46 43.92779 -102.91857 36124 ft 438 kts 310°
2026-05-01 12:47 43.96614 -102.99310 36102 ft 439 kts 309°
2026-05-01 12:47 43.99361 -103.06297 36087 ft 447 kts 303°
2026-05-01 12:48 44.01965 -103.13379 36070 ft 446 kts 303°
2026-05-01 12:48 44.04131 -103.19345 36086 ft 447 kts 303°
2026-05-01 12:49 44.06714 -103.26504 36099 ft 448 kts 303°
2026-05-01 12:49 44.09287 -103.33676 36123 ft 448 kts 303°
2026-05-01 12:50 44.11876 -103.40921 36144 ft 450 kts 303°
2026-05-01 12:50 44.14468 -103.48191 36151 ft 449 kts 303°
2026-05-01 12:51 44.17482 -103.56677 35841 ft 449 kts 303°
2026-05-01 12:51 44.20010 -103.63814 36130 ft 444 kts 303°
2026-05-01 12:52 44.20862 -103.66220 36134 ft 446 kts 302°
2026-05-01 12:52 44.24702 -103.77103 36137 ft 450 kts 302°
2026-05-01 12:53 44.28537 -103.88017 36153 ft 451 kts 302°
2026-05-01 12:54 44.31110 -103.95367 36142 ft 452 kts 302°
2026-05-01 12:54 44.35375 -104.07591 36138 ft 451 kts 302°
2026-05-01 12:55 44.39188 -104.18562 36158 ft 453 kts 302°
2026-05-01 12:56 44.41331 -104.24751 36159 ft 454 kts 302°
2026-05-01 12:56 44.43903 -104.32198 36157 ft 454 kts 302°
2026-05-01 12:57 44.46455 -104.39603 36144 ft 454 kts 302°
2026-05-01 12:57 44.50258 -104.50679 36164 ft 456 kts 302°
2026-05-01 12:58 44.52774 -104.58033 36157 ft 457 kts 302°
2026-05-01 12:59 44.56541 -104.69081 36156 ft 457 kts 302°
2026-05-01 12:59 44.60310 -104.80178 36148 ft 461 kts 302°
2026-05-01 13:00 44.64095 -104.91373 36142 ft 461 kts 302°
2026-05-01 13:01 44.67847 -105.02518 36151 ft 461 kts 302°
2026-05-01 13:02 44.71583 -105.13655 36143 ft 462 kts 302°
2026-05-01 13:07 44.98901 -105.96574 36122 ft 468 kts 301°
2026-05-01 13:08 45.01374 -106.04211 36123 ft 466 kts 301°
2026-05-01 13:08 45.03824 -106.11797 36118 ft 465 kts 301°
2026-05-01 13:09 45.06277 -106.19410 36122 ft 466 kts 301°
2026-05-01 13:09 45.08727 -106.27035 36119 ft 468 kts 301°
2026-05-01 13:10 45.11188 -106.34720 36130 ft 469 kts 301°
2026-05-01 13:10 45.13649 -106.42432 36127 ft 468 kts 301°
2026-05-01 13:11 45.16081 -106.50069 36143 ft 469 kts 301°
2026-05-01 13:11 45.18943 -106.59090 36143 ft 469 kts 301°
2026-05-01 13:12 45.20961 -106.65467 36147 ft 468 kts 300°
2026-05-01 13:12 45.23386 -106.73152 36142 ft 469 kts 300°
2026-05-01 13:13 45.25822 -106.80895 36139 ft 471 kts 300°
2026-05-01 13:13 45.28244 -106.88618 36146 ft 471 kts 300°
2026-05-01 13:14 45.30678 -106.96406 36144 ft 469 kts 300°
2026-05-01 13:14 45.33104 -107.04182 36143 ft 470 kts 300°
2026-05-01 13:15 45.35515 -107.11943 36144 ft 470 kts 300°
2026-05-01 13:15 45.37933 -107.19743 36152 ft 472 kts 300°
2026-05-01 13:16 45.40351 -107.27574 36155 ft 472 kts 300°
2026-05-01 13:16 45.42762 -107.35403 36158 ft 473 kts 300°
2026-05-01 13:17 45.47574 -107.51102 36149 ft 472 kts 300°
2026-05-01 13:18 45.51174 -107.62907 36155 ft 475 kts 300°
2026-05-01 13:18 45.53587 -107.70855 36141 ft 474 kts 299°
2026-05-01 13:19 45.55959 -107.78688 36158 ft 474 kts 299°
2026-05-01 13:20 45.59544 -107.90575 36151 ft 474 kts 298°
2026-05-01 13:20 45.61945 -107.98568 36159 ft 475 kts 299°
2026-05-01 13:21 45.65635 -108.10902 36153 ft 476 kts 299°
2026-05-01 13:21 45.68096 -108.19160 36157 ft 477 kts 298°
2026-05-01 13:22 45.70514 -108.27307 36155 ft 476 kts 298°
2026-05-01 13:22 45.72935 -108.35482 36154 ft 476 kts 298°
2026-05-01 13:23 45.75318 -108.43560 36137 ft 477 kts 298°
2026-05-01 13:23 45.77698 -108.51653 36114 ft 477 kts 298°
2026-05-01 13:24 45.80101 -108.59852 36115 ft 477 kts 298°
2026-05-01 13:25 45.83434 -108.72422 36118 ft 481 kts 295°
2026-05-01 13:25 45.85611 -108.80931 36140 ft 479 kts 295°
2026-05-01 13:26 45.87798 -108.89498 36147 ft 479 kts 295°
2026-05-01 13:26 45.89950 -108.97953 36155 ft 480 kts 295°
2026-05-01 13:27 45.92103 -109.06445 36150 ft 482 kts 295°
2026-05-01 13:27 45.95350 -109.19314 36152 ft 479 kts 295°
2026-05-01 13:28 45.98557 -109.32089 36160 ft 480 kts 295°
2026-05-01 13:29 46.02837 -109.49252 36164 ft 480 kts 295°
2026-05-01 13:31 46.09201 -109.75024 36170 ft 481 kts 294°
2026-05-01 13:32 46.14475 -109.96600 36181 ft 481 kts 293°
2026-05-01 13:33 46.19693 -110.18163 36179 ft 481 kts 293°
2026-05-01 13:34 46.23834 -110.35419 36188 ft 481 kts 293°
2026-05-01 13:35 46.26913 -110.48340 36193 ft 480 kts 293°
2026-05-01 13:36 46.29980 -110.61284 36192 ft 480 kts 293°
2026-05-01 13:36 46.33029 -110.74229 36191 ft 481 kts 292°
2026-05-01 13:37 46.35061 -110.82898 36194 ft 481 kts 292°
2026-05-01 13:37 46.37072 -110.91515 36197 ft 480 kts 292°
2026-05-01 13:38 46.40093 -111.04519 36204 ft 480 kts 292°
2026-05-01 13:39 46.42092 -111.13171 36202 ft 480 kts 292°
2026-05-01 13:39 46.44087 -111.21835 36193 ft 480 kts 291°
2026-05-01 13:40 46.46056 -111.30422 36196 ft 480 kts 291°
2026-05-01 13:40 46.48011 -111.38982 36198 ft 480 kts 291°
2026-05-01 13:41 46.49971 -111.47598 36210 ft 480 kts 291°
2026-05-01 13:41 46.51940 -111.56290 36214 ft 479 kts 291°
2026-05-01 13:42 46.53884 -111.64907 36194 ft 479 kts 291°
2026-05-01 13:42 46.55850 -111.73652 36190 ft 480 kts 290°
2026-05-01 13:43 46.57803 -111.82381 36170 ft 480 kts 290°
2026-05-01 13:43 46.59722 -111.90991 36134 ft 479 kts 290°
2026-05-01 13:44 46.61550 -111.99676 36124 ft 480 kts 288°
2026-05-01 13:44 46.63276 -112.08511 36131 ft 480 kts 288°
2026-05-01 13:45 46.65010 -112.17407 36157 ft 478 kts 288°
2026-05-01 13:45 46.66720 -112.26214 36177 ft 479 kts 288°
2026-05-01 13:46 46.68438 -112.35095 36196 ft 478 kts 288°
2026-05-01 13:46 46.70146 -112.43972 36207 ft 478 kts 288°
2026-05-01 13:47 46.71849 -112.52861 36218 ft 478 kts 288°
2026-05-01 13:47 46.73546 -112.61762 36203 ft 478 kts 288°
2026-05-01 13:48 46.75236 -112.70664 36206 ft 477 kts 287°
2026-05-01 13:48 46.76906 -112.79504 36212 ft 478 kts 287°
2026-05-01 13:49 46.78599 -112.88514 36222 ft 478 kts 287°
2026-05-01 13:49 46.80309 -112.97651 36225 ft 478 kts 287°
2026-05-01 13:50 46.82009 -113.06781 36221 ft 477 kts 287°
2026-05-01 13:50 46.83717 -113.15998 36221 ft 477 kts 287°
2026-05-01 13:51 46.85355 -113.24879 36227 ft 477 kts 287°
2026-05-01 13:51 46.86989 -113.33787 36230 ft 476 kts 287°
2026-05-01 13:52 46.88613 -113.42681 36235 ft 476 kts 287°
2026-05-01 13:52 46.90257 -113.51733 36233 ft 477 kts 287°
2026-05-01 13:53 46.91890 -113.60761 36238 ft 476 kts 286°
2026-05-01 13:53 46.94339 -113.74393 36209 ft 476 kts 285°
2026-05-01 13:54 46.95964 -113.83494 36179 ft 476 kts 285°
2026-05-01 13:54 46.97574 -113.92548 36162 ft 477 kts 285°
2026-05-01 13:55 46.99174 -114.01604 36148 ft 477 kts 285°
2026-05-01 13:55 47.00757 -114.10608 36141 ft 475 kts 285°
2026-05-01 13:56 47.02334 -114.19624 36134 ft 474 kts 285°
2026-05-01 13:56 47.03885 -114.28531 36178 ft 474 kts 285°
2026-05-01 13:57 47.05447 -114.37544 36188 ft 474 kts 285°
2026-05-01 13:57 47.07009 -114.46611 36208 ft 474 kts 285°
2026-05-01 13:58 47.08568 -114.55704 36206 ft 475 kts 285°
2026-05-01 13:58 47.10109 -114.64742 36206 ft 474 kts 285°
2026-05-01 13:59 47.11636 -114.73736 36490 ft 474 kts 284°
2026-05-01 13:59 47.12404 -114.78281 36163 ft 476 kts 284°
2026-05-01 13:59 47.13157 -114.82752 36235 ft 467 kts 284°
2026-05-01 14:00 47.14658 -114.91694 36218 ft 468 kts 284°
2026-05-01 14:00 47.16165 -115.00710 36219 ft 471 kts 284°
2026-05-01 14:01 47.17678 -115.09819 36218 ft 470 kts 284°
2026-05-01 14:01 47.19183 -115.18928 36219 ft 470 kts 284°
2026-05-01 14:02 47.20679 -115.28023 36222 ft 469 kts 284°
2026-05-01 14:02 47.22161 -115.37090 36223 ft 467 kts 284°
2026-05-01 14:03 47.23635 -115.46155 36214 ft 467 kts 284°
2026-05-01 14:03 47.25098 -115.55202 36201 ft 466 kts 284°
2026-05-01 14:04 47.26553 -115.64247 36195 ft 465 kts 284°
2026-05-01 14:04 47.27990 -115.73228 36181 ft 466 kts 284°
2026-05-01 14:05 47.29428 -115.82262 36163 ft 467 kts 284°
2026-05-01 14:05 47.30849 -115.91240 36149 ft 466 kts 284°
2026-05-01 14:06 47.32259 -116.00198 36139 ft 465 kts 284°
2026-05-01 14:06 47.33658 -116.09137 36139 ft 464 kts 284°
2026-05-01 14:07 47.35049 -116.18076 36141 ft 464 kts 284°
2026-05-01 14:08 47.37132 -116.31548 36143 ft 464 kts 284°
2026-05-01 14:08 47.38506 -116.40500 36148 ft 463 kts 284°
2026-05-01 14:09 47.39874 -116.49462 36148 ft 464 kts 284°
2026-05-01 14:09 47.41231 -116.58400 36138 ft 463 kts 284°
2026-05-01 14:10 47.42579 -116.67329 36135 ft 462 kts 283°
2026-05-01 14:10 47.43923 -116.76283 36137 ft 462 kts 283°
2026-05-01 14:11 47.45254 -116.85204 36137 ft 462 kts 283°
2026-05-01 14:11 47.47266 -116.98786 35926 ft 460 kts 283°
2026-05-01 14:12 47.47924 -117.03245 36150 ft 457 kts 283°
2026-05-01 14:12 47.48581 -117.07720 36110 ft 461 kts 283°
2026-05-01 14:12 47.49910 -117.16808 36104 ft 462 kts 283°
2026-05-01 14:13 47.51218 -117.25806 36095 ft 460 kts 283°
2026-05-01 14:13 47.52512 -117.34759 36100 ft 461 kts 283°
2026-05-01 14:14 47.53799 -117.43717 36100 ft 460 kts 283°
2026-05-01 14:14 47.55076 -117.52654 36103 ft 461 kts 283°
2026-05-01 14:15 47.56331 -117.61571 36094 ft 460 kts 281°
2026-05-01 14:15 47.57251 -117.70658 36099 ft 460 kts 278°
2026-05-01 14:16 47.58138 -117.79778 36098 ft 460 kts 278°
2026-05-01 14:16 47.59004 -117.88824 36094 ft 460 kts 278°
2026-05-01 14:17 47.59866 -117.97939 36098 ft 459 kts 278°
2026-05-01 14:17 47.60713 -118.06984 36107 ft 458 kts 278°
2026-05-01 14:18 47.61553 -118.16035 36107 ft 458 kts 278°
2026-05-01 14:18 47.62381 -118.25041 36102 ft 459 kts 278°
2026-05-01 14:19 47.63204 -118.34074 36105 ft 458 kts 278°
2026-05-01 14:19 47.64019 -118.43093 36102 ft 458 kts 278°
2026-05-01 14:20 47.65228 -118.56630 36103 ft 458 kts 278°
2026-05-01 14:21 47.66025 -118.65666 36096 ft 458 kts 278°
2026-05-01 14:21 47.66815 -118.74691 36100 ft 457 kts 278°
2026-05-01 14:22 47.67980 -118.88168 36096 ft 456 kts 278°
2026-05-01 14:22 47.68750 -118.97173 36095 ft 456 kts 278°
2026-05-01 14:23 47.69515 -119.06216 36101 ft 456 kts 278°
2026-05-01 14:23 47.70265 -119.15157 36089 ft 456 kts 278°
2026-05-01 14:24 47.70991 -119.23901 36096 ft 452 kts 278°
2026-05-01 14:24 47.71359 -119.28357 35705 ft 452 kts 278°
2026-05-01 14:24 47.71720 -119.32762 35198 ft 449 kts 278°
2026-05-01 14:25 47.72075 -119.37116 34630 ft 447 kts 278°
2026-05-01 14:25 47.72434 -119.41526 33965 ft 446 kts 277°
2026-05-01 14:25 47.72796 -119.45998 33279 ft 447 kts 277°
2026-05-01 14:25 47.73130 -119.50153 32718 ft 447 kts 277°
2026-05-01 14:26 47.73478 -119.54501 32186 ft 448 kts 277°
2026-05-01 14:26 47.74186 -119.63396 31104 ft 453 kts 277°
2026-05-01 14:26 47.74533 -119.67791 30586 ft 454 kts 276°
2026-05-01 14:27 47.74882 -119.72243 30076 ft 455 kts 276°
2026-05-01 14:27 47.75228 -119.76670 29581 ft 457 kts 276°
2026-05-01 14:27 47.75574 -119.81119 29092 ft 458 kts 276°
2026-05-01 14:28 47.76245 -119.89823 28151 ft 453 kts 276°
2026-05-01 14:28 47.76574 -119.94120 27695 ft 448 kts 276°
2026-05-01 14:28 47.76896 -119.98357 27248 ft 444 kts 276°
2026-05-01 14:28 47.77223 -120.02664 26799 ft 441 kts 276°
2026-05-01 14:29 47.77538 -120.06848 26355 ft 439 kts 276°
2026-05-01 14:29 47.77857 -120.11097 25925 ft 437 kts 276°
2026-05-01 14:30 47.78802 -120.23831 24507 ft 430 kts 276°
2026-05-01 14:30 47.79108 -120.27983 24042 ft 427 kts 275°
2026-05-01 14:30 47.79416 -120.32192 23588 ft 424 kts 275°
2026-05-01 14:31 47.80016 -120.40461 22706 ft 420 kts 275°
2026-05-01 14:31 47.80309 -120.44524 22273 ft 417 kts 275°
2026-05-01 14:31 47.80603 -120.48624 21841 ft 414 kts 275°
2026-05-01 14:31 47.80892 -120.52677 21414 ft 412 kts 275°
2026-05-01 14:32 47.81183 -120.56786 20991 ft 409 kts 275°
2026-05-01 14:32 47.81466 -120.60794 20562 ft 407 kts 274°
2026-05-01 14:32 47.81748 -120.64811 20141 ft 406 kts 274°
2026-05-01 14:32 47.82022 -120.68740 19715 ft 403 kts 274°
2026-05-01 14:33 47.82296 -120.72686 19304 ft 400 kts 273°
2026-05-01 14:33 47.82567 -120.76605 18895 ft 397 kts 273°
2026-05-01 14:33 47.82834 -120.80478 18486 ft 395 kts 273°
2026-05-01 14:33 47.83098 -120.84347 18056 ft 394 kts 273°
2026-05-01 14:34 47.83363 -120.88231 17626 ft 392 kts 273°
2026-05-01 14:34 47.83627 -120.92128 17190 ft 389 kts 273°
2026-05-01 14:34 47.83886 -120.95972 16767 ft 385 kts 274°
2026-05-01 14:34 47.84140 -120.99761 16355 ft 382 kts 274°
2026-05-01 14:35 47.84391 -121.03523 15944 ft 380 kts 274°
2026-05-01 14:35 47.84634 -121.07175 15546 ft 379 kts 274°
2026-05-01 14:35 47.84871 -121.10762 15154 ft 377 kts 274°
2026-05-01 14:35 47.85106 -121.14334 14763 ft 375 kts 274°
2026-05-01 14:36 47.85345 -121.17992 14364 ft 372 kts 274°
2026-05-01 14:36 47.85583 -121.21639 13977 ft 369 kts 274°
2026-05-01 14:36 47.85821 -121.25315 13622 ft 366 kts 274°
2026-05-01 14:36 47.86050 -121.28856 13282 ft 365 kts 274°
2026-05-01 14:37 47.86276 -121.32381 12935 ft 365 kts 274°
2026-05-01 14:37 47.86503 -121.35925 12577 ft 364 kts 274°
2026-05-01 14:37 47.86731 -121.39521 12197 ft 362 kts 274°
2026-05-01 14:37 47.86956 -121.43082 11841 ft 359 kts 274°
2026-05-01 14:38 47.87180 -121.46622 11513 ft 357 kts 274°
2026-05-01 14:38 47.87395 -121.50063 11203 ft 356 kts 274°
2026-05-01 14:38 47.87609 -121.53491 11164 ft 340 kts 274°
2026-05-01 14:38 47.87811 -121.56728 11121 ft 325 kts 274°
2026-05-01 14:39 47.88003 -121.59843 11084 ft 311 kts 274°
2026-05-01 14:39 47.88187 -121.62820 11053 ft 297 kts 274°
2026-05-01 14:39 47.88361 -121.65673 10990 ft 288 kts 273°
2026-05-01 14:39 47.88381 -121.68452 11006 ft 281 kts 257°
2026-05-01 14:40 47.87681 -121.70961 11010 ft 285 kts 233°
2026-05-01 14:40 47.86395 -121.73097 10515 ft 300 kts 224°
2026-05-01 14:40 47.84942 -121.75191 10154 ft 294 kts 224°
2026-05-01 14:40 47.83541 -121.77177 9945 ft 279 kts 223°
2026-05-01 14:41 47.82191 -121.79054 9790 ft 271 kts 223°
2026-05-01 14:41 47.80906 -121.80823 9528 ft 270 kts 222°
2026-05-01 14:41 47.79589 -121.82621 9204 ft 270 kts 222°
2026-05-01 14:41 47.78285 -121.84394 8903 ft 269 kts 222°
2026-05-01 14:42 47.76941 -121.86217 8630 ft 267 kts 222°
2026-05-01 14:42 47.75650 -121.87963 8324 ft 267 kts 222°
2026-05-01 14:42 47.74334 -121.89742 8019 ft 267 kts 221°
2026-05-01 14:42 47.73035 -121.91496 7824 ft 266 kts 221°
2026-05-01 14:43 47.71744 -121.93235 7577 ft 265 kts 221°
2026-05-01 14:43 47.70455 -121.94972 7260 ft 264 kts 221°
2026-05-01 14:43 47.69153 -121.96725 6979 ft 264 kts 221°
2026-05-01 14:43 47.67884 -121.98431 6730 ft 263 kts 221°
2026-05-01 14:44 47.66614 -122.00137 6471 ft 262 kts 221°
2026-05-01 14:44 47.64107 -122.03503 5956 ft 259 kts 222°
2026-05-01 14:44 47.62858 -122.05179 5731 ft 256 kts 222°
2026-05-01 14:45 47.61623 -122.06834 5408 ft 257 kts 222°
2026-05-01 14:45 47.59159 -122.10134 4855 ft 257 kts 221°
2026-05-01 14:45 47.57975 -122.11720 4806 ft 247 kts 221°
2026-05-01 14:46 47.56817 -122.13261 4760 ft 238 kts 219°
2026-05-01 14:46 47.54028 -122.14312 4248 ft 235 kts 161°
2026-05-01 14:46 47.52604 -122.13351 4023 ft 233 kts 150°
2026-05-01 14:47 47.51262 -122.12235 3802 ft 233 kts 150°
2026-05-01 14:47 47.49920 -122.11119 3575 ft 232 kts 149°
2026-05-01 14:47 47.48605 -122.10028 3364 ft 232 kts 150°
2026-05-01 14:48 47.45992 -122.07877 3200 ft 217 kts 150°
2026-05-01 14:48 47.45046 -122.07101 3178 ft 211 kts 150°
2026-05-01 14:48 47.44339 -122.06522 3154 ft 206 kts 150°
2026-05-01 14:49 47.42109 -122.04682 3080 ft 189 kts 150°
2026-05-01 14:49 47.39930 -122.02881 2692 ft 190 kts 149°
2026-05-01 14:50 47.38131 -122.01409 2556 ft 181 kts 152°
2026-05-01 14:50 47.35690 -122.02415 2708 ft 189 kts 243°
2026-05-01 14:51 47.35460 -122.04125 2572 ft 186 kts 282°
2026-05-01 14:51 47.36357 -122.07295 2582 ft 184 kts 296°
2026-05-01 14:52 47.37082 -122.10593 2573 ft 183 kts 280°
2026-05-01 14:52 47.37222 -122.12307 2574 ft 185 kts 275°
2026-05-01 14:52 47.37322 -122.15726 2551 ft 178 kts 283°
2026-05-01 14:53 47.37837 -122.17064 2515 ft 162 kts 324°
2026-05-01 14:53 47.38663 -122.17864 2634 ft 164 kts 329°
2026-05-01 14:53 47.39591 -122.18737 2593 ft 171 kts 329°
2026-05-01 14:53 47.40484 -122.19555 2557 ft 164 kts 330°
2026-05-01 14:54 47.41379 -122.20351 2570 ft 163 kts 331°
2026-05-01 14:54 47.42274 -122.21131 2613 ft 165 kts 331°
2026-05-01 14:54 47.43182 -122.21907 2616 ft 169 kts 331°
2026-05-01 14:54 47.44098 -122.22770 2405 ft 174 kts 326°
2026-05-01 14:55 47.44963 -122.23763 2120 ft 171 kts 322°
2026-05-01 14:55 47.45809 -122.24726 1687 ft 170 kts 327°
2026-05-01 14:55 47.46713 -122.25551 1269 ft 168 kts 334°
2026-05-01 14:55 47.47676 -122.26189 861 ft 164 kts 340°
2026-05-01 14:56 47.48571 -122.26655 812 ft 140 kts 341°
2026-05-01 14:56 47.49391 -122.27200 581 ft 144 kts 332°
2026-05-01 14:56 47.50160 -122.27872 416 ft 142 kts 329°
2026-05-01 14:56 47.50925 -122.28535 287 ft 141 kts 331°
2026-05-01 14:57 47.51709 -122.29162 152 ft 143 kts 333°
2026-05-01 14:57 47.53213 -122.30423 22 ft 68 kts 331°
2026-05-01 14:57 47.53492 -122.30656 23 ft 34 kts 329°
2026-05-01 14:58 47.53648 -122.30790 23 ft 19 kts 330°
2026-05-01 14:58 47.53763 -122.30886 23 ft 19 kts 330°
2026-05-01 14:58 47.53884 -122.30987 23 ft 18 kts 331°
2026-05-01 14:58 47.53973 -122.31060 23 ft 14 kts 331°
2026-05-01 14:59 47.54005 -122.31169 23 ft 8 kts 248°
2026-05-01 14:59 47.53960 -122.31203 22 ft 8 kts 166°
2026-05-01 14:59 47.53902 -122.31162 21 ft 10 kts 150°
2026-05-01 14:59 47.53844 -122.31113 21 ft 11 kts 150°